Zurück zum Katalog

STARLINK-35010

AktivKommunikationSSO
NORAD 65281·PAYLOAD·🇺🇸 United States

Gestartet Aug 22, 2025 von Vandenberg Space Force Base

Loading…

Nächste Überflüge (nächste 24 Stunden)

TLE

AktuellSource: CelesTrak SupGP

Epoche: Sep 15, 2026, 02:47 UTC

1 65281C 25184J   26258.11645833  .00032654  00000+0  10135-2 0  2585
2 65281  97.2840 306.2039 0000957  89.7801 217.1028 15.33429102    13

Verfolge STARLINK-35010 in Echtzeit mit AllMySat

Download on the App Store